Stations météo

Publicité
Cherbourg, France (7024): Température de l'air & dewpoint: 17.02.2017 01:00:00 - 23.02.2017 01:00:00 (CET)Cherbourg, France (7024): Température de l'air 5cm: 17.02.2017 01:00:00 - 23.02.2017 01:00:00 (CET)Cherbourg, France (7024): Température de l'air -20cm & Température de l'air -100cm: 17.02.2017 01:00:00 - 23.02.2017 01:00:00 (CET)Cherbourg, France (7024): Vitesse du vent & gusts: 17.02.2017 01:00:00 - 23.02.2017 01:00:00 (CET)Cherbourg, France (7024): Direction du vent: 17.02.2017 01:00:00 - 23.02.2017 01:00:00 (CET)Cherbourg, France (7024): reduced air pressure: 17.02.2017 01:00:00 - 23.02.2017 01:00:00 (CET)Cherbourg, France (7024): visibility: 17.02.2017 01:00:00 - 23.02.2017 01:00:00 (CET)Cherbourg, France (7024): Ensoleillement: 17.02.2017 01:00:00 - 23.02.2017 01:00:00 (CET)Cherbourg, France (7024): Quantités de précipitations: 17.02.2017 01:00:00 - 23.02.2017 01:00:00 (CET)
Date & Time tt [°C] td [°C] tt 5cm [°C] tt -20cm [°C] tt -100cm [°C] ff [km/h] ff [knt] fx [km/h] fx [knt] dd ppp [hPa] vv [km] sd [min] rr [mm]
23.02.2017 01:00:00 8,6 8,0 8,2 8,1 7,7 38 21 56 30 SSW 1010,7 4,3 0 0,0
23.02.2017 00:00:00 8,7 7,9 8,3 8,2 7,7 35 19 55 30 SW 1011,6 3,8 0 0,0
22.02.2017 23:00:00 9,0 7,6 8,6 8,2 7,7 33 18 57 31 SW 1012,1 19 0 0,0
22.02.2017 22:00:00 9,3 7,9 8,8 8,1 7,6 34 18 57 31 SW 1012,7 20 0 0,0
22.02.2017 21:00:00 9,4 8,2 8,7 8,2 7,7 34 19 51 28 SW 1013,5 17 0 0,0
22.02.2017 20:00:00 9,3 8,4 8,9 8,1 7,6 37 20 52 28 SW 1013,6 15 0 0,0
22.02.2017 19:00:00 9,2 8,7 8,9 8,1 7,6 37 20 57 31 SW 1013,7 2,0 0 0,0
22.02.2017 18:00:00 9,3 8,7 9,0 8,1 7,7 41 22 62 34 SW 1014,0 8 0 0,0
22.02.2017 17:00:00 9,5 8,9 9,3 8,1 7,6 42 23 64 35 SW 1014,1 4,5 0 0,2
22.02.2017 16:00:00 9,5 8,9 9,2 8,1 7,6 41 22 62 33 SW 1014,8 2,6 0 0,0
22.02.2017 15:00:00 9,7 9,1 9,6 8,1 7,6 41 22 62 34 SW 1014,6 3,4 0 0,0
22.02.2017 14:00:00 9,8 9,2 9,9 8,0 7,6 42 23 63 34 SW 1015,1 2,0 0 0,0
22.02.2017 13:00:00 10,0 9,2 9,5 8,0 7,6 37 20 61 33 SW 1015,6 5 0 0,0
22.02.2017 12:00:00 9,8 8,6 9,5 8,0 7,6 37 20 67 36 WSW 1016,2 7 0 0,0
22.02.2017 11:00:00 10,0 8,3 9,8 8,0 7,6 41 22 62 34 WSW 1016,1 20 0 0,0
22.02.2017 10:00:00 9,7 8,0 9,3 8,0 7,6 38 20 61 33 WSW 1016,3 56 0 0,0
22.02.2017 09:00:00 9,4 8,2 8,9 8,0 7,6 36 19 57 31 WSW 1016,5 58 0 0,0
22.02.2017 08:00:00 9,5 8,1 9,1 8,0 7,6 39 21 67 36 SW 1016,1 49 0 0,0
22.02.2017 07:00:00 9,4 7,7 9,0 8,0 7,6 39 21 63 34 WSW 1015,9 46 0 0,0
22.02.2017 06:00:00 9,6 7,5 9,2 8,0 7,5 39 21 66 36 WSW 1016,6 20 0 0,0
22.02.2017 05:00:00 9,6 7,7 9,1 8,0 7,6 40 21 58 32 WSW 1016,6 17 0 0,0
22.02.2017 04:00:00 9,9 7,7 9,5 8,0 7,5 31 17 56 30 WSW 1017,3 37 0 0,0
22.02.2017 03:00:00 9,9 7,8 9,4 8,0 7,6 32 18 59 32 WSW 1017,7 18 0 0,0
22.02.2017 02:00:00 9,8 8,2 9,4 8,0 7,6 32 17 54 29 SW 1017,7 17 0 0,0
22.02.2017 01:00:00 9,9 8,5 9,5 8,0 7,6 34 18 54 29 SW 1018,2 16 0 0,0
22.02.2017 00:00:00 9,9 8,7 9,3 8,0 7,5 40 21 58 31 SW 1018,3 15 0 0,0
21.02.2017 23:00:00 9,7 8,6 9,2 8,0 7,5 36 20 52 28 SW 1018,6 13 0 0,0
21.02.2017 22:00:00 9,7 8,9 9,1 8,0 7,5 40 21 55 30 SW 1018,8 12 0 0,0
21.02.2017 21:00:00 9,5 8,9 9,1 8,0 7,5 30 16 51 28 WSW 1019,5 8 0 0,0
21.02.2017 20:00:00 9,4 8,8 9,1 8,0 7,5 30 16 51 28 SW 1019,4 8 0 0,0
21.02.2017 19:00:00 9,4 8,9 9,1 8,0 7,5 32 18 54 29 SW 1019,8 4,7 0 0,0
21.02.2017 18:00:00 9,6 9,0 9,3 8,0 7,5 35 19 53 28 WSW 1019,9 5 0 0,0
21.02.2017 17:00:00 9,8 9,2 9,7 8,0 7,5 36 20 60 32 WSW 1020,2 7 0 0,0
21.02.2017 16:00:00 10,1 9,6 9,9 7,9 7,5 33 18 53 28 WSW 1020,6 4,8 0 0,0
21.02.2017 15:00:00 9,9 9,6 9,9 7,9 7,5 32 17 56 30 WSW 1021,3 2,9 0 0,0
21.02.2017 14:00:00 9,9 9,6 9,9 7,9 7,5 34 18 51 28 WSW 1021,7 4,4 0 0,0
21.02.2017 13:00:00 9,8 9,3 10,1 7,9 7,5 32 17 46 25 WSW 1022,4 8 0 0,0
21.02.2017 12:00:00 9,8 9,3 9,9 7,8 7,5 28 15 48 26 WSW 1022,6 16 0 0,0
21.02.2017 11:00:00 9,8 9,7 9,9 7,8 7,5 32 17 45 25 WSW 1022,4 1,7 0 0,0
21.02.2017 10:00:00 9,9 9,7 9,8 7,8 7,4 27 15 46 25 WSW 1022,3 0,7 0 0,0
21.02.2017 09:00:00 9,7 9,6 9,2 7,8 7,5 27 15 43 23 SW 1021,9 0,6 0 0,0
21.02.2017 08:00:00 9,3 9,2 8,9 7,8 7,4 31 17 48 26 SW 1021,5 2,4 0 0,0
21.02.2017 07:00:00 9,0 8,9 8,8 7,8 7,5 32 17 46 25 SW 1021,6 1,4 0 0,0
21.02.2017 06:00:00 8,9 8,6 8,6 7,8 7,4 29 16 47 26 WSW 1021,9 7 0 0,0
21.02.2017 05:00:00 8,7 8,4 8,5 7,8 7,5 31 17 55 30 W 1021,9 7 0 0,2
21.02.2017 04:00:00 8,6 8,5 8,5 7,8 7,4 34 19 54 29 W 1022,3 3,3 0 0,0
21.02.2017 03:00:00 8,8 8,8 8,5 7,8 7,4 31 17 43 23 WSW 1022,3 0,2 0 0,0
21.02.2017 02:00:00 8,7 8,6 8,7 7,8 7,4 18 10 36 19 WSW 1022,9 0,2 0 0,0
21.02.2017 01:00:00 8,9 8,8 8,8 7,8 7,4 24 13 38 21 WSW 1022,9 0,3 0 0,0
21.02.2017 00:00:00 9,1 9,0 9,0 7,8 7,4 26 14 39 21 W 1023,0 0,2 0 0,0
20.02.2017 23:00:00 9,2 9,1 9,0 7,8 7,4 21 11 33 18 WSW 1023,1 0,3 0 0,0
20.02.2017 22:00:00 9,1 9,0 9,0 7,8 7,4 22 12 34 18 W 1023,3 0,2 0 0,0
20.02.2017 21:00:00 9,8 9,7 9,7 7,8 7,4 25 14 37 20 WSW 1023,0 0,3 0 0,0
20.02.2017 20:00:00 10,1 9,9 9,7 7,8 7,4 22 12 34 18 WSW 1022,7 0,4 0 0,0
20.02.2017 19:00:00 9,8 9,7 9,3 7,7 7,4 23 12 34 19 WSW 1022,7 0,3 0 0,0
20.02.2017 18:00:00 9,4 9,3 9,3 7,7 7,4 18 10 38 20 SW 1022,4 0,9 0 0,0
20.02.2017 17:00:00 9,2 8,9 9,4 7,6 7,4 27 14 39 21 WSW 1022,6 1,8 10 0,0
20.02.2017 16:00:00 10,0 9,4 10,2 7,6 7,4 27 15 37 20 WSW 1022,0 18 5 0,0
20.02.2017 15:00:00 10,0 9,7 10,5 7,5 7,4 27 14 41 22 W 1022,8 1,6 0 0,0
20.02.2017 14:00:00 11,3 11,1 10,7 7,5 7,4 21 12 37 20 WSW 1022,4 1,1 9 0,0
20.02.2017 13:00:00 10,4 10,2 10,3 7,4 7,4 24 13 39 21 W 1023,1 0,2 0 0,0
20.02.2017 12:00:00 10,5 10,3 10,5 7,4 7,4 23 13 36 20 W 1023,4 0,3 0 0,0
20.02.2017 11:00:00 10,5 10,3 10,2 7,3 7,4 23 12 32 18 WSW 1023,1 1,3 2 0,0
20.02.2017 10:00:00 10,0 9,8 10,0 7,3 7,4 21 11 32 18 WSW 1023,3 0,7 0 0,0
20.02.2017 09:00:00 10,3 10,1 9,6 7,2 7,4 21 11 31 17 WSW 1023,0 10 0 0,0
20.02.2017 08:00:00 9,8 9,7 9,7 7,2 7,4 20 11 29 16 WSW 1022,7 0,3 0 0,0
20.02.2017 07:00:00 9,8 9,7 9,4 7,2 7,4 21 11 29 16 WSW 1022,5 0,2 0 0,0
20.02.2017 06:00:00 9,5 9,4 8,9 7,2 7,4 18 10 27 14 WSW 1022,7 0,2 0 0,0
20.02.2017 05:00:00 9,0 8,9 8,7 7,2 7,4 15 8 29 15 SW 1022,5 0,4 0 0,0
20.02.2017 04:00:00 8,8 8,7 8,7 7,2 7,4 20 11 29 16 WSW 1023,0 1,4 0 0,0
20.02.2017 03:00:00 9,0 8,9 8,8 7,2 7,4 22 12 32 18 WSW 1023,5 0,6 0 0,0
20.02.2017 02:00:00 8,9 8,8 8,6 7,1 7,4 18 10 36 19 SW 1023,8 0,7 0 0,0
20.02.2017 01:00:00 8,9 8,4 8,6 7,1 7,4 24 13 37 20 SSW 1023,8 8 0 0,0
20.02.2017 00:00:00 9,0 8,5 8,8 7,1 7,4 19 11 33 18 SW 1024,3 7 0 0,0
19.02.2017 23:00:00 9,0 8,7 8,6 7,1 7,4 21 11 35 19 SW 1024,8 1,9 0 0,0
19.02.2017 22:00:00 8,8 8,3 8,4 7,1 7,4 22 12 36 19 SW 1024,7 4,3 0 0,0
19.02.2017 21:00:00 8,7 8,1 8,3 7,1 7,4 20 11 29 16 SW 1024,6 7 0 0,0
19.02.2017 20:00:00 8,8 7,7 8,6 7,0 7,4 20 11 30 16 SW 1025,0 19 0 0,0
19.02.2017 19:00:00 9,0 7,1 8,7 7,0 7,4 20 11 33 18 WSW 1024,9 40 0 0,0
19.02.2017 18:00:00 9,4 7,2 9,3 6,9 7,4 23 12 36 20 WSW 1024,3 56 42 0,0
19.02.2017 17:00:00 9,9 6,8 10,0 6,9 7,4 23 12 33 18 WSW 1024,4 55 7 0,0
19.02.2017 16:00:00 10,3 7,2 11,0 6,8 7,4 24 13 34 19 WSW 1024,7 47 19 0,0
19.02.2017 15:00:00 10,4 7,3 11,5 6,7 7,4 22 12 36 20 W 1024,9 20 3 0,0
19.02.2017 14:00:00 10,5 8,3 10,8 6,7 7,4 22 12 30 16 W 1025,5 12 2 0,0
19.02.2017 13:00:00 10,3 7,7 10,1 6,6 7,4 19 11 29 15 W 1025,9 15 0 0,0
19.02.2017 12:00:00 9,7 8,1 9,8 6,6 7,4 19 10 31 17 WSW 1026,1 8 0 0,0
19.02.2017 11:00:00 9,2 8,0 9,2 6,6 7,3 18 10 30 16 WSW 1025,9 5 0 0,0
19.02.2017 10:00:00 8,8 7,9 8,4 6,6 7,3 19 10 27 15 WSW 1025,6 4,1 0 0,0
19.02.2017 09:00:00 7,9 6,8 5,0 6,6 7,3 14 8 22 12 W 1025,5 7 0 0,0
19.02.2017 08:00:00 6,7 6,3 5,2 6,6 7,4 15 8 21 12 W 1025,1 1,7 0 0,0
19.02.2017 07:00:00 6,4 6,0 4,7 6,7 7,3 16 9 26 14 W 1024,8 2,7 0 0,2
19.02.2017 06:00:00 6,4 4,7 4,6 6,7 7,3 22 12 29 15 WSW 1024,9 12 0 0,0
19.02.2017 05:00:00 5,6 3,3 4,3 6,7 7,3 21 12 29 15 SW 1024,7 16 0 0,0
19.02.2017 04:00:00 6,1 3,3 3,6 6,8 7,3 21 11 29 16 SSW 1024,4 19 0 0,0
19.02.2017 03:00:00 5,1 2,6 3,1 6,9 7,3 14 8 24 13 S 1025,0 20 0 0,0
19.02.2017 02:00:00 5,4 2,7 1,0 6,9 7,3 16 9 21 12 S 1025,3 14 0 0,0
19.02.2017 01:00:00 4,7 3,4 1,2 7,0 7,3 10 6 14 8 S 1025,2 8 0 0,0
19.02.2017 00:00:00 5,6 3,9 0,3 7,0 7,3 10 5 11 6 S 1025,2 9 0 0,0
18.02.2017 23:00:00 5,0 3,3 0,0 7,1 7,3 9 5 11 6 SSE 1025,3 9 0 0,0
18.02.2017 22:00:00 6,0 3,8 2,5 7,1 7,3 8 4 13 7 SE 1025,3 13 0 0,0
18.02.2017 21:00:00 6,1 3,6 3,2 7,1 7,3 9 5 13 7 SE 1025,2 13 0 0,0
18.02.2017 20:00:00 5,9 3,4 0,9 7,1 7,3 7 4 11 6 SE 1025,1 13 0 0,0
18.02.2017 19:00:00 6,8 4,1 4,7 7,1 7,3 8 4 14 8 ESE 1024,7 14 0 0,0
18.02.2017 18:00:00 9,4 5,0 9,5 7,0 7,3 7 4 15 8 E 1024,2 15 53 0,0
18.02.2017 17:00:00 11,9 4,6 15,2 6,8 7,3 9 5 15 8 SE 1023,6 19 60 0,0
18.02.2017 16:00:00 12,7 5,6 17,4 6,7 7,3 8 4 19 10 SSE 1023,7 20 60 0,0
18.02.2017 15:00:00 12,7 3,9 16,8 6,6 7,3 10 6 20 11 SSE 1024,0 20 60 0,0
18.02.2017 14:00:00 12,2 4,4 16,0 6,5 7,3 14 8 22 12 S 1024,5 20 60 0,0
18.02.2017 13:00:00 11,7 4,9 15,4 6,4 7,3 14 8 23 12 S 1025,3 20 60 0,0
18.02.2017 12:00:00 10,5 6,3 12,3 6,4 7,3 9 5 19 10 SSE 1025,6 12 60 0,0
18.02.2017 11:00:00 8,1 5,2 7,6 6,4 7,3 9 5 15 8 SSE 1025,8 15 43 0,0
18.02.2017 10:00:00 5,7 4,2 2,4 6,5 7,3 8 4 13 7 SSE 1025,8 12 28 0,0
18.02.2017 09:00:00 3,7 2,7 1,8 6,5 7,3 8 4 17 9 SSE 1025,6 8 0 0,0
18.02.2017 08:00:00 3,7 2,7 1,6 6,5 7,3 10 6 17 9 SSE 1025,6 8 0 0,0
18.02.2017 07:00:00 4,2 3,3 2,4 6,6 7,3 14 7 23 13 SSE 1025,5 7 0 0,0
18.02.2017 06:00:00 3,7 3,1 1,7 6,6 7,3 12 6 16 9 SSE 1025,4 6 0 0,0
18.02.2017 05:00:00 4,1 3,2 2,4 6,7 7,3 12 6 19 10 SSE 1025,5 6 0 0,2
18.02.2017 04:00:00 4,3 3,6 1,2 6,7 7,3 14 8 17 9 SSE 1025,6 5 0 0,0
18.02.2017 03:00:00 4,0 3,4 1,5 6,8 7,3 9 5 14 8 SSE 1026,2 4,3 0 0,0
18.02.2017 02:00:00 4,4 4,1 2,2 6,9 7,3 11 6 14 8 SSE 1026,8 2,7 0 0,0
18.02.2017 01:00:00 4,2 3,8 2,2 6,9 7,3 8 4 13 7 SE 1026,9 2,5 0 0,0
18.02.2017 00:00:00 4,4 3,7 2,4 6,9 7,3 8 4 16 9 ESE 1027,1 9 0 0,0
17.02.2017 23:00:00 4,0 3,4 2,3 7,0 7,3 8 4 11 6 ESE 1027,5 10 0 0,2
17.02.2017 22:00:00 4,3 3,6 2,4 7,0 7,3 9 5 13 7 SE 1027,9 15 0 0,0
17.02.2017 21:00:00 4,4 4,0 2,0 7,0 7,3 8 4 11 6 ESE 1028,0 8 0 0,0
17.02.2017 20:00:00 4,0 3,6 2,1 7,0 7,3 4 2 10 6 SE 1028,1 2,0 0 0,0
17.02.2017 19:00:00 4,6 3,9 2,9 7,0 7,3 7 4 11 6 SE 1028,0 0,4 0 0,0
17.02.2017 18:00:00 8,1 5,9 8,7 6,9 7,3 9 5 14 8 SE 1027,5 12 51 0,0
17.02.2017 17:00:00 9,7 6,8 10,7 6,8 7,3 9 5 16 9 ESE 1027,7 16 46 0,0
17.02.2017 16:00:00 9,0 7,4 9,7 6,7 7,3 8 5 15 8 E 1028,2 14 46 0,0
17.02.2017 15:00:00 8,0 7,2 9,9 6,6 7,3 9 5 13 7 ENE 1028,8 4,0 3 0,0
17.02.2017 14:00:00 8,3 7,4 12,0 6,5 7,2 8 4 12 6 NNE 1029,3 7 15 0,0
17.02.2017 13:00:00 8,2 7,4 11,2 6,5 7,2 4 2 8 5 NW 1029,7 9 21 0,0
17.02.2017 12:00:00 7,4 7,0 9,5 6,5 7,3 2 1 12 6 NNE 1030,0 2,9 8 0,0
17.02.2017 11:00:00 7,7 7,3 8,7 6,5 7,2 0 0 6 4 N 1029,9 9 28 0,0
17.02.2017 10:00:00 6,8 6,8 2,0 6,5 7,3 0 0 8 4 N 1029,8 9 41 0,0
17.02.2017 09:00:00 2,8 2,7 1,1 6,5 7,2 6 3 10 5 SW 1029,6 3,0 0 0,0
17.02.2017 08:00:00 3,3 3,2 0,5 6,6 7,2 8 4 9 5 SW 1029,6 5 0 0,0
17.02.2017 07:00:00 3,7 3,4 0,0 6,6 7,2 5 3 9 5 SW 1029,7 4,6 0 0,0
17.02.2017 06:00:00 3,1 2,8 0,4 6,7 7,2 3 2 8 4 WSW 1029,8 0,5 0 0,0
17.02.2017 05:00:00 4,4 4,3 3,9 6,7 7,2 6 3 13 7 SW 1029,9 0,1 0 0,0
17.02.2017 04:00:00 4,1 4,0 1,8 6,8 7,2 8 5 14 7 W 1030,2 0,1 0 0,0
17.02.2017 03:00:00 3,2 3,1 -1,5 6,8 7,2 5 3 9 5 WNW 1030,6 0,1 0 0,0
17.02.2017 02:00:00 2,1 1,8 -0,2 6,9 7,2 4 2 14 7 SW 1030,7 14 0 0,0
17.02.2017 01:00:00 2,2 1,9 -1,7 7,0 7,2 9 5 16 8 S 1030,8 10 0 0,2

tt = Température de l'air
td = dewpoint
tt 5cm = Température de l'air 5cm
tt -20cm = Température de l'air -20cm
tt -100cm = Température de l'air -100cm
ff = Vitesse du vent
fx = gusts
dd = Direction du vent
ppp = reduced air pressure
vv = visibility
sd = Ensoleillement
rr = Quantités de précipitations

stations d'obs. à proximité